QPF
0.02 0.04 0.06 0.09 0.11 0.14 0.15 0.16 0.18 0.15 0.09 0.07 0.08 0.10 0.09 0.08 0.07 0.06 0.05 0.04 0.05 0.05 0.06 0.05 0.06 0.04 0.04 0.03 0.02 0.02 0.02 0.02 0.03 0.04 0.04 0.04 0.02 0.04 0.05 0.05 0.06 0.05 0.04
0.02 0.04 0.06 0.07 0.08 0.10 0.14 0.16 0.21 0.19 0.11 0.06 0.05 0.07 0.08 0.08 0.07 0.06 0.06 0.05 0.06 0.05 0.04 0.05 0.04 0.04 0.04 0.02 0.02 0.01 0.02 0.02 0.02 0.04 0.05 0.04 0.03 0.02 0.02 0.02 0.03 0.03 0.04
0.02 0.05 0.06 0.05 0.06 0.07 0.11 0.14 0.20 0.19 0.14 0.09 0.08 0.07 0.06 0.06 0.06 0.05 0.05 0.05 0.05 0.04 0.04 0.04 0.03 0.03 0.02 0.02 0.02 0.01 0.02 0.02 0.01 0.01 0.02 0.03 0.03 0.02 0.01 0.01 0.01 0.01 0.03
0.03 0.05 0.06 0.06 0.06 0.06 0.12 0.15 0.16 0.15 0.13 0.10 0.08 0.07 0.06 0.05 0.05 0.04 0.05 0.05 0.04 0.03 0.03 0.03 0.02 0.02 0.01 0.02 0.01 0.01 0.01 0.01 0.01 0.01 0.00 0.01 0.01 0.02 0.02 0.01 0.00 0.00 0.01
0.05 0.06 0.06 0.06 0.07 0.07 0.10 0.12 0.14 0.12 0.12 0.11 0.09 0.10 0.08 0.07 0.06 0.05 0.05 0.05 0.04 0.03 0.02 0.02 0.01 0.01 0.01 0.02 0.01 0.01 0.01 0.01 0.01 0.01 0.00 0.00 0.00 0.01 0.01 0.02 0.01 0.00 0.00
0.02 0.03 0.06 0.07 0.07 0.07 0.08 0.09 0.10 0.10 0.10 0.11 0.10 0.09 0.07 0.05 0.04 0.04 0.04 0.04 0.04 0.02 0.01 0.01 0.01 0.01 0.01 0.01 0.01 0.00 0.00 0.01 0.01 0.01 0.00 0.00 0.00 0.00 0.01 0.01 0.01 0.01 0.00
0.01 0.01 0.03 0.05 0.05 0.06 0.07 0.07 0.06 0.06 0.07 0.08 0.07 0.07 0.06 0.06 0.04 0.04 0.03 0.03 0.02 0.02 0.02 0.02 0.02 0.01 0.01 0.01 0.01 0.01 0.00 0.01 0.01 0.01 0.00 0.00 0.01 0.00 0.00 0.00 0.00 0.00 0.00
0.00 0.01 0.02 0.03 0.03 0.04 0.05 0.06 0.06 0.05 0.04 0.04 0.04 0.05 0.05 0.05 0.04 0.04 0.03 0.02 0.02 0.02 0.03 0.03 0.02 0.02 0.01 0.01 0.01 0.01 0.00 0.00 0.00 0.00 0.00 0.00 0.00 0.00 0.00 0.00 0.00 0.00 0.00
0.01 0.02 0.02 0.02 0.01 0.02 0.04 0.03 0.04 0.04 0.03 0.03 0.03 0.04 0.03 0.03 0.04 0.03 0.03 0.03 0.03 0.03 0.03 0.02 0.02 0.01 0.01 0.01 0.01 0.00 0.00 0.00 0.00 0.00 0.00 0.00 0.00 0.00 0.00 0.00 0.00 0.00 0.00
0.00 0.01 0.01 0.01 0.01 0.02 0.03 0.02 0.02 0.03 0.03 0.03 0.02 0.02 0.02 0.03 0.04 0.04 0.03 0.03 0.03 0.03 0.03 0.02 0.02 0.01 0.01 0.01 0.00 0.00 0.00 0.00 0.00 0.00 0.00 0.00 0.00 0.00 0.00 0.00 0.00 0.00 0.00
0.00 0.00 0.00 0.01 0.01 0.01 0.02 0.02 0.02 0.02 0.03 0.02 0.02 0.02 0.02 0.02 0.03 0.03 0.03 0.03 0.03 0.03 0.02 0.01 0.01 0.01 0.01 0.00 0.00 0.00 0.00 0.00 0.00 0.00 0.00 0.00 0.00 0.00 0.00 0.00 0.00 0.00 0.00
0.00 0.00 0.00 0.01 0.01 0.01 0.01 0.01 0.01 0.01 0.01 0.02 0.02 0.03 0.02 0.02 0.02 0.03 0.03 0.03 0.03 0.03 0.02 0.02 0.01 0.01 0.00 0.00 0.00 0.00 0.00 0.00 0.00 0.00 0.00 0.00 0.00 0.00 0.00 0.00 0.00 0.00 0.00
0.00 0.00 0.00 0.01 0.01 0.01 0.01 0.01 0.00 0.00 0.01 0.01 0.02 0.02 0.02 0.02 0.01 0.02 0.03 0.02 0.02 0.02 0.02 0.02 0.02 0.01 0.00 0.00 0.00 0.00 0.00 0.00 0.00 0.00 0.00 0.00 0.00 0.00 0.00 0.00 0.00 0.00 0.00
0.00 0.00 0.00 0.01 0.01 0.02 0.02 0.01 0.00 0.01 0.01 0.02 0.02 0.02 0.02 0.01 0.01 0.02 0.02 0.02 0.02 0.02 0.01 0.01 0.01 0.01 0.00 0.00 0.00 0.00 0.00 0.00 0.00 0.00 0.00 0.00 0.00 0.00 0.00 0.00 0.00 0.00 0.00
0.00 0.00 0.00 0.01 0.01 0.02 0.02 0.01 0.02 0.05 0.04 0.03 0.02 0.02 0.02 0.02 0.02 0.02 0.02 0.02 0.02 0.02 0.02 0.01 0.00 0.00 0.00 0.00 0.00 0.00 0.00 0.00 0.00 0.00 0.00 0.00 0.00 0.00 0.00 0.00 0.00 0.00 0.00
0.00 0.00 0.00 0.00 0.00 0.01 0.02 0.01 0.02 0.05 0.06 0.04 0.03 0.03 0.02 0.02 0.01 0.02 0.02 0.02 0.02 0.02 0.02 0.01 0.00 0.00 0.00 0.00 0.00 0.00 0.00 0.00 0.00 0.00 0.00 0.00 0.00 0.00 0.00 0.00 0.00 0.00 0.00
0.00 0.00 0.00 0.00 0.00 0.00 0.00 0.00 0.01 0.01 0.04 0.06 0.04 0.03 0.02 0.01 0.01 0.01 0.02 0.01 0.02 0.01 0.01 0.01 0.01 0.00 0.00 0.00 0.00 0.00 0.00 0.00 0.00 0.00 0.00 0.00 0.00 0.00 0.00 0.00 0.00 0.00 0.00
0.00 0.00 0.00 0.00 0.00 0.00 0.00 0.00 0.00 0.01 0.01 0.05 0.05 0.03 0.02 0.01 0.01 0.01 0.01 0.01 0.01 0.01 0.01 0.00 0.00 0.00 0.00 0.00 0.00 0.00 0.00 0.00 0.00 0.00 0.00 0.00 0.00 0.00 0.00 0.00 0.00 0.00 0.00
0.00 0.00 0.00 0.00 0.00 0.00 0.00 0.00 0.00 0.01 0.01 0.02 0.03 0.02 0.01 0.01 0.01 0.01 0.01 0.01 0.01 0.01 0.01 0.00 0.00 0.00 0.00 0.00 0.00 0.00 0.00 0.00 0.00 0.00 0.00 0.00 0.00 0.00 0.00 0.00 0.00 0.00 0.00
0.00 0.01 0.00 0.01 0.01 0.00 0.00 0.01 0.01 0.01 0.02 0.02 0.02 0.02 0.01 0.01 0.01 0.01 0.01 0.01 0.01 0.01 0.00 0.00 0.00 0.00 0.00 0.00 0.00 0.00 0.00 0.01 0.01 0.00 0.00 0.00 0.00 0.00 0.00 0.00 0.00 0.01 0.01
0.00 0.00 0.01 0.01 0.01 0.00 0.00 0.00 0.00 0.01 0.02 0.03 0.03 0.03 0.02 0.02 0.02 0.02 0.01 0.01 0.01 0.01 0.00 0.00 0.00 0.00 0.00 0.00 0.00 0.00 0.00 0.00 0.00 0.00 0.00 0.00 0.00 0.00 0.00 0.00 0.00 0.01 0.01
0.00 0.00 0.00 0.01 0.01 0.01 0.01 0.01 0.01 0.01 0.02 0.03 0.02 0.03 0.03 0.03 0.03 0.03 0.03 0.03 0.02 0.01 0.01 0.01 0.01 0.00 0.00 0.00 0.00 0.00 0.00 0.00 0.00 0.00 0.00 0.00 0.01 0.01 0.00 0.00 0.00 0.01 0.01
0.01 0.01 0.01 0.01 0.01 0.01 0.01 0.02 0.02 0.02 0.02 0.02 0.02 0.02 0.03 0.03 0.03 0.03 0.04 0.04 0.03 0.03 0.02 0.02 0.01 0.01 0.01 0.01 0.01 0.01 0.01 0.01 0.01 0.01 0.01 0.01 0.01 0.01 0.01 0.02 0.02 0.02 0.02
0.01 0.02 0.02 0.01 0.01 0.01 0.01 0.02 0.02 0.02 0.02 0.02 0.03 0.03 0.04 0.04 0.04 0.04 0.05 0.05 0.05 0.04 0.04 0.04 0.03 0.03 0.03 0.03 0.04 0.04 0.04 0.03 0.03 0.02 0.02 0.01 0.01 0.01 0.02 0.03 0.03 0.03 0.02
0.03 0.03 0.02 0.02 0.01 0.02 0.02 0.02 0.02 0.03 0.03 0.03 0.03 0.04 0.04 0.04 0.04 0.05 0.05 0.06 0.06 0.06 0.06 0.05 0.04 0.04 0.05 0.06 0.06 0.06 0.05 0.05 0.04 0.03 0.02 0.01 0.02 0.02 0.03 0.03 0.03 0.03 0.03
0.02 0.03 0.02 0.02 0.02 0.02 0.02 0.02 0.02 0.03 0.03 0.03 0.03 0.03 0.03 0.04 0.05 0.06 0.07 0.07 0.08 0.08 0.07 0.06 0.05 0.05 0.05 0.06 0.06 0.05 0.04 0.04 0.04 0.03 0.02 0.03 0.03 0.04 0.04 0.03 0.03 0.02 0.02
MSLP
1008.41 1008.63 1008.80 1008.92 1009.05 1009.22 1009.48 1009.83 1010.31 1010.88 1011.51 1012.15 1012.77 1013.33 1013.82 1014.22 1014.57 1014.87 1015.15 1015.42 1015.71 1015.99 1016.27 1016.54 1016.77 1016.97 1017.12 1017.23 1017.29 1017.32 1017.33 1017.32 1017.30 1017.27 1017.25 1017.24 1017.25 1017.29 1017.36 1017.46 1017.58 1017.73 1017.88
1008.55 1008.73 1008.83 1008.87 1008.91 1009.00 1009.18 1009.50 1009.96 1010.55 1011.22 1011.93 1012.62 1013.25 1013.80 1014.24 1014.60 1014.91 1015.18 1015.45 1015.73 1016.02 1016.31 1016.60 1016.85 1017.06 1017.21 1017.31 1017.36 1017.37 1017.36 1017.33 1017.30 1017.28 1017.27 1017.27 1017.29 1017.32 1017.35 1017.41 1017.47 1017.54 1017.62
1008.68 1008.83 1008.87 1008.85 1008.81 1008.81 1008.92 1009.18 1009.61 1010.20 1010.90 1011.67 1012.43 1013.13 1013.74 1014.24 1014.65 1014.97 1015.26 1015.53 1015.82 1016.12 1016.43 1016.73 1017.00 1017.22 1017.38 1017.47 1017.51 1017.51 1017.47 1017.43 1017.40 1017.38 1017.37 1017.38 1017.39 1017.41 1017.42 1017.42 1017.42 1017.42 1017.42
1008.76 1008.90 1008.92 1008.85 1008.74 1008.68 1008.71 1008.91 1009.30 1009.88 1010.59 1011.39 1012.21 1012.98 1013.66 1014.23 1014.68 1015.05 1015.37 1015.66 1015.96 1016.27 1016.60 1016.91 1017.20 1017.44 1017.61 1017.71 1017.74 1017.73 1017.69 1017.64 1017.60 1017.58 1017.57 1017.58 1017.59 1017.59 1017.57 1017.53 1017.47 1017.40 1017.33
1008.77 1008.92 1008.95 1008.87 1008.73 1008.62 1008.61 1008.75 1009.10 1009.64 1010.35 1011.16 1012.01 1012.83 1013.57 1014.20 1014.71 1015.12 1015.47 1015.79 1016.11 1016.43 1016.77 1017.10 1017.40 1017.66 1017.85 1017.96 1018.01 1018.01 1017.98 1017.93 1017.90 1017.87 1017.87 1017.87 1017.87 1017.86 1017.81 1017.74 1017.63 1017.50 1017.37
1008.70 1008.90 1008.97 1008.92 1008.80 1008.68 1008.64 1008.75 1009.04 1009.54 1010.22 1011.01 1011.87 1012.71 1013.48 1014.15 1014.70 1015.15 1015.54 1015.88 1016.21 1016.54 1016.89 1017.23 1017.55 1017.83 1018.04 1018.19 1018.27 1018.29 1018.28 1018.26 1018.23 1018.22 1018.22 1018.22 1018.21 1018.19 1018.12 1018.02 1017.87 1017.70 1017.52
1008.56 1008.84 1008.99 1009.02 1008.96 1008.88 1008.84 1008.92 1009.18 1009.62 1010.24 1010.99 1011.81 1012.64 1013.41 1014.09 1014.66 1015.14 1015.54 1015.89 1016.23 1016.57 1016.91 1017.27 1017.60 1017.90 1018.15 1018.33 1018.45 1018.52 1018.54 1018.55 1018.54 1018.54 1018.55 1018.56 1018.55 1018.52 1018.45 1018.33 1018.17 1017.98 1017.76
1008.37 1008.76 1009.03 1009.17 1009.21 1009.19 1009.19 1009.27 1009.49 1009.88 1010.43 1011.10 1011.85 1012.63 1013.36 1014.02 1014.59 1015.06 1015.46 1015.82 1016.15 1016.49 1016.84 1017.19 1017.54 1017.86 1018.14 1018.36 1018.53 1018.64 1018.71 1018.75 1018.77 1018.80 1018.82 1018.83 1018.83 1018.80 1018.74 1018.63 1018.47 1018.28 1018.05
1008.16 1008.66 1009.06 1009.34 1009.50 1009.58 1009.64 1009.74 1009.94 1010.27 1010.73 1011.32 1011.98 1012.66 1013.33 1013.95 1014.48 1014.94 1015.33 1015.68 1016.00 1016.33 1016.68 1017.03 1017.38 1017.72 1018.03 1018.29 1018.50 1018.65 1018.76 1018.84 1018.89 1018.93 1018.97 1019.00 1019.01 1019.00 1018.95 1018.86 1018.72 1018.55 1018.34
1007.92 1008.53 1009.06 1009.48 1009.77 1009.96 1010.10 1010.23 1010.42 1010.70 1011.09 1011.57 1012.13 1012.72 1013.30 1013.85 1014.34 1014.77 1015.15 1015.49 1015.82 1016.14 1016.48 1016.83 1017.19 1017.54 1017.87 1018.15 1018.39 1018.58 1018.71 1018.82 1018.89 1018.95 1019.00 1019.04 1019.06 1019.07 1019.05 1018.99 1018.89 1018.74 1018.56
1007.65 1008.35 1008.99 1009.52 1009.94 1010.24 1010.46 1010.64 1010.83 1011.08 1011.39 1011.79 1012.25 1012.74 1013.24 1013.73 1014.18 1014.58 1014.95 1015.29 1015.62 1015.96 1016.30 1016.66 1017.02 1017.38 1017.71 1018.00 1018.25 1018.45 1018.61 1018.72 1018.80 1018.86 1018.91 1018.96 1018.99 1019.01 1019.01 1018.99 1018.92 1018.82 1018.67
1007.34 1008.08 1008.79 1009.41 1009.92 1010.32 1010.61 1010.85 1011.06 1011.29 1011.57 1011.89 1012.27 1012.69 1013.13 1013.56 1013.98 1014.38 1014.75 1015.11 1015.46 1015.82 1016.18 1016.55 1016.91 1017.27 1017.60 1017.89 1018.14 1018.33 1018.48 1018.58 1018.65 1018.70 1018.74 1018.78 1018.81 1018.84 1018.86 1018.86 1018.83 1018.76 1018.64
1006.99 1007.72 1008.45 1009.11 1009.68 1010.15 1010.52 1010.81 1011.06 1011.30 1011.56 1011.85 1012.18 1012.54 1012.94 1013.34 1013.75 1014.16 1014.55 1014.94 1015.33 1015.72 1016.11 1016.49 1016.87 1017.22 1017.54 1017.81 1018.04 1018.21 1018.34 1018.41 1018.46 1018.49 1018.51 1018.53 1018.55 1018.58 1018.60 1018.61 1018.60 1018.56 1018.47
1006.58 1007.27 1007.96 1008.62 1009.22 1009.73 1010.15 1010.51 1010.81 1011.08 1011.36 1011.64 1011.96 1012.31 1012.68 1013.08 1013.49 1013.92 1014.35 1014.78 1015.21 1015.64 1016.06 1016.46 1016.85 1017.19 1017.49 1017.75 1017.94 1018.08 1018.17 1018.22 1018.24 1018.23 1018.23 1018.22 1018.22 1018.24 1018.25 1018.26 1018.26 1018.22 1018.15
1006.14 1006.73 1007.35 1007.97 1008.56 1009.09 1009.57 1009.99 1010.35 1010.69 1011.01 1011.32 1011.65 1012.01 1012.39 1012.79 1013.22 1013.67 1014.13 1014.60 1015.07 1015.54 1015.98 1016.40 1016.78 1017.12 1017.40 1017.62 1017.78 1017.89 1017.95 1017.96 1017.95 1017.92 1017.89 1017.86 1017.84 1017.83 1017.83 1017.83 1017.81 1017.77 1017.70
1005.67 1006.13 1006.65 1007.21 1007.77 1008.32 1008.84 1009.33 1009.77 1010.19 1010.57 1010.94 1011.31 1011.69 1012.09 1012.50 1012.95 1013.41 1013.89 1014.38 1014.87 1015.35 1015.81 1016.23 1016.60 1016.92 1017.18 1017.37 1017.51 1017.59 1017.62 1017.61 1017.58 1017.54 1017.49 1017.45 1017.41 1017.38 1017.36 1017.33 1017.29 1017.23 1017.15
1005.18 1005.51 1005.92 1006.39 1006.92 1007.48 1008.05 1008.61 1009.14 1009.65 1010.12 1010.57 1010.99 1011.40 1011.81 1012.24 1012.68 1013.14 1013.62 1014.11 1014.59 1015.06 1015.51 1015.91 1016.27 1016.56 1016.79 1016.96 1017.07 1017.14 1017.16 1017.15 1017.12 1017.07 1017.03 1016.98 1016.94 1016.89 1016.84 1016.79 1016.72 1016.64 1016.53
1004.68 1004.87 1005.17 1005.58 1006.07 1006.64 1007.26 1007.89 1008.52 1009.13 1009.69 1010.22 1010.70 1011.15 1011.58 1012.00 1012.43 1012.87 1013.32 1013.77 1014.23 1014.66 1015.07 1015.44 1015.76 1016.03 1016.23 1016.38 1016.48 1016.54 1016.57 1016.57 1016.56 1016.53 1016.50 1016.47 1016.42 1016.37 1016.31 1016.23 1016.13 1016.01 1015.87
1004.17 1004.25 1004.45 1004.78 1005.25 1005.83 1006.49 1007.20 1007.92 1008.62 1009.28 1009.88 1010.42 1010.91 1011.36 1011.77 1012.18 1012.58 1012.99 1013.39 1013.79 1014.18 1014.54 1014.87 1015.15 1015.38 1015.56 1015.69 1015.79 1015.85 1015.90 1015.92 1015.94 1015.94 1015.94 1015.93 1015.89 1015.84 1015.77 1015.67 1015.54 1015.39 1015.21
1003.66 1003.64 1003.75 1004.03 1004.47 1005.05 1005.74 1006.51 1007.31 1008.09 1008.83 1009.51 1010.11 1010.63 1011.09 1011.51 1011.89 1012.26 1012.62 1012.98 1013.33 1013.66 1013.98 1014.25 1014.50 1014.70 1014.86 1014.98 1015.08 1015.16 1015.22 1015.28 1015.32 1015.36 1015.38 1015.39 1015.37 1015.32 1015.23 1015.11 1014.96 1014.78 1014.57
1003.19 1003.07 1003.11 1003.32 1003.72 1004.29 1004.99 1005.79 1006.64 1007.48 1008.29 1009.02 1009.67 1010.24 1010.73 1011.15 1011.53 1011.88 1012.22 1012.54 1012.86 1013.16 1013.44 1013.69 1013.90 1014.09 1014.24 1014.36 1014.46 1014.55 1014.63 1014.71 1014.78 1014.83 1014.87 1014.88 1014.87 1014.81 1014.71 1014.58 1014.40 1014.20 1013.97
1002.80 1002.59 1002.54 1002.68 1003.02 1003.55 1004.23 1005.02 1005.88 1006.75 1007.59 1008.37 1009.06 1009.67 1010.19 1010.65 1011.05 1011.42 1011.77 1012.09 1012.41 1012.70 1012.98 1013.22 1013.44 1013.62 1013.77 1013.90 1014.01 1014.11 1014.19 1014.27 1014.34 1014.40 1014.43 1014.43 1014.40 1014.33 1014.21 1014.06 1013.86 1013.64 1013.39
1002.56 1002.26 1002.11 1002.16 1002.41 1002.86 1003.48 1004.22 1005.05 1005.90 1006.74 1007.53 1008.26 1008.90 1009.48 1009.99 1010.44 1010.86 1011.26 1011.63 1011.99 1012.32 1012.63 1012.90 1013.14 1013.34 1013.51 1013.64 1013.76 1013.85 1013.93 1013.99 1014.04 1014.07 1014.07 1014.05 1013.98 1013.88 1013.74 1013.56 1013.35 1013.11 1012.86
1002.53 1002.14 1001.90 1001.83 1001.97 1002.30 1002.81 1003.46 1004.20 1005.00 1005.80 1006.58 1007.31 1007.99 1008.62 1009.19 1009.72 1010.23 1010.71 1011.16 1011.60 1012.01 1012.38 1012.71 1012.99 1013.23 1013.43 1013.58 1013.69 1013.77 1013.83 1013.86 1013.86 1013.85 1013.80 1013.72 1013.61 1013.47 1013.29 1013.09 1012.86 1012.62 1012.37
1002.80 1002.32 1001.97 1001.78 1001.78 1001.97 1002.33 1002.84 1003.47 1004.16 1004.89 1005.62 1006.34 1007.04 1007.71 1008.35 1008.96 1009.56 1010.15 1010.71 1011.25 1011.75 1012.21 1012.62 1012.97 1013.25 1013.47 1013.64 1013.75 1013.82 1013.84 1013.83 1013.78 1013.70 1013.59 1013.46 1013.29 1013.10 1012.89 1012.66 1012.43 1012.19 1011.95
1003.39 1002.84 1002.39 1002.09 1001.95 1001.98 1002.18 1002.53 1003.01 1003.57 1004.19 1004.85 1005.52 1006.21 1006.90 1007.59 1008.27 1008.96 1009.64 1010.31 1010.95 1011.55 1012.10 1012.58 1012.99 1013.33 1013.58 1013.76 1013.87 1013.92 1013.91 1013.85 1013.75 1013.61 1013.44 1013.24 1013.03 1012.80 1012.56 1012.32 1012.08 1011.85 1011.62
Thickness
5771 5767 5762 5758 5754 5750 5746 5744 5742 5740 5739 5737 5736 5734 5734 5735 5736 5736 5734 5734 5734 5733 5733 5735 5731 5732 5732 5731 5731 5730 5728 5728 5728 5727 5725 5727 5728 5727 5725 5725 5725 5724 5722
5767 5762 5758 5755 5751 5747 5745 5743 5740 5739 5738 5737 5736 5735 5735 5735 5736 5735 5732 5732 5732 5731 5732 5731 5732 5731 5730 5729 5728 5727 5729 5729 5728 5726 5723 5721 5722 5722 5725 5724 5723 5723 5722
5766 5760 5755 5752 5750 5747 5745 5743 5741 5738 5736 5735 5734 5733 5731 5732 5732 5731 5731 5730 5730 5730 5730 5730 5731 5730 5731 5730 5728 5728 5726 5727 5727 5728 5725 5722 5719 5721 5722 5721 5722 5721 5721
5768 5762 5756 5752 5750 5749 5747 5743 5739 5738 5736 5734 5733 5732 5730 5730 5731 5731 5730 5728 5728 5728 5728 5728 5728 5729 5731 5729 5730 5730 5729 5726 5727 5726 5725 5725 5726 5720 5717 5719 5720 5719 5718
5770 5763 5758 5755 5752 5750 5746 5742 5738 5736 5734 5733 5732 5730 5730 5730 5730 5729 5727 5726 5726 5727 5727 5727 5727 5727 5729 5728 5728 5727 5728 5729 5728 5728 5726 5724 5723 5724 5720 5715 5716 5718 5718
5771 5765 5760 5755 5752 5750 5746 5742 5737 5734 5733 5732 5731 5730 5729 5728 5727 5726 5724 5725 5726 5726 5726 5726 5726 5727 5728 5726 5726 5726 5726 5727 5726 5727 5727 5725 5723 5722 5721 5717 5714 5714 5715
5770 5764 5758 5754 5750 5747 5745 5742 5737 5733 5732 5731 5730 5729 5728 5727 5726 5726 5725 5726 5727 5726 5724 5726 5724 5726 5725 5725 5724 5724 5725 5724 5722 5722 5724 5724 5724 5723 5721 5719 5717 5713 5714
5772 5766 5761 5756 5752 5748 5745 5742 5737 5734 5732 5730 5729 5728 5727 5727 5728 5727 5729 5728 5729 5728 5725 5724 5723 5723 5723 5724 5722 5724 5722 5720 5720 5721 5719 5720 5721 5721 5720 5717 5715 5711 5712
5773 5768 5764 5759 5755 5751 5747 5744 5739 5735 5732 5730 5729 5727 5727 5728 5728 5728 5728 5729 5727 5727 5724 5723 5722 5722 5721 5721 5721 5722 5719 5718 5719 5719 5716 5717 5718 5717 5717 5715 5714 5710 5707
5774 5770 5766 5762 5758 5755 5751 5747 5742 5737 5734 5732 5730 5729 5728 5728 5727 5727 5727 5727 5726 5725 5723 5722 5721 5720 5719 5719 5719 5718 5717 5716 5715 5714 5713 5712 5715 5713 5712 5712 5711 5709 5707
5776 5772 5768 5764 5760 5757 5753 5748 5744 5740 5736 5734 5732 5731 5730 5729 5727 5726 5726 5725 5724 5723 5722 5721 5720 5719 5718 5717 5717 5719 5715 5714 5713 5711 5710 5708 5708 5709 5709 5708 5706 5705 5704
5778 5774 5770 5765 5760 5757 5754 5750 5747 5743 5740 5737 5734 5732 5731 5729 5727 5726 5726 5725 5724 5723 5722 5721 5719 5718 5717 5716 5715 5715 5714 5712 5711 5709 5707 5706 5705 5702 5704 5703 5702 5700 5698
5775 5773 5769 5764 5760 5758 5755 5752 5749 5746 5743 5740 5736 5733 5731 5730 5729 5728 5726 5725 5724 5723 5722 5720 5719 5718 5717 5715 5714 5713 5712 5711 5710 5708 5705 5703 5702 5698 5700 5697 5698 5697 5696
5770 5769 5766 5763 5761 5758 5755 5753 5750 5749 5745 5741 5738 5735 5733 5732 5731 5730 5727 5725 5724 5723 5721 5720 5719 5718 5716 5715 5713 5711 5709 5708 5707 5705 5703 5701 5699 5696 5694 5693 5691 5691 5690
5767 5766 5763 5762 5760 5757 5755 5753 5751 5749 5746 5742 5738 5736 5735 5733 5731 5730 5728 5726 5724 5723 5721 5719 5718 5717 5716 5715 5713 5710 5708 5705 5704 5702 5701 5699 5696 5693 5691 5692 5690 5688 5686
5765 5765 5763 5761 5759 5758 5755 5754 5752 5749 5746 5742 5739 5737 5735 5733 5731 5729 5727 5725 5723 5722 5720 5719 5717 5716 5717 5713 5708 5706 5706 5704 5701 5699 5698 5696 5692 5688 5684 5683 5681 5679 5679
5764 5763 5763 5762 5761 5759 5758 5754 5752 5749 5745 5741 5739 5737 5735 5732 5730 5729 5727 5724 5722 5721 5719 5717 5716 5715 5713 5708 5704 5700 5701 5701 5699 5697 5695 5695 5695 5688 5687 5682 5676 5674 5671
5764 5763 5763 5763 5762 5761 5759 5756 5753 5749 5745 5742 5740 5738 5735 5732 5730 5728 5726 5723 5722 5720 5718 5716 5715 5713 5711 5705 5700 5696 5696 5698 5696 5694 5692 5690 5689 5687 5683 5681 5679 5677 5675
5763 5764 5764 5764 5763 5761 5759 5756 5753 5749 5746 5743 5741 5739 5736 5733 5730 5728 5725 5723 5721 5719 5717 5715 5713 5711 5708 5702 5697 5692 5694 5694 5692 5691 5690 5687 5685 5681 5675 5673 5672 5672 5672
5759 5761 5763 5763 5761 5760 5759 5755 5753 5750 5747 5746 5743 5741 5738 5735 5731 5729 5726 5723 5720 5718 5716 5715 5712 5709 5707 5700 5695 5689 5692 5692 5691 5688 5686 5681 5679 5675 5670 5667 5667 5665 5665
5754 5756 5758 5758 5758 5758 5756 5753 5752 5750 5749 5747 5743 5740 5738 5735 5731 5728 5725 5722 5719 5716 5714 5713 5710 5708 5705 5699 5693 5688 5690 5691 5688 5688 5686 5684 5675 5668 5663 5660 5660 5659 5656
5747 5750 5751 5751 5753 5753 5751 5749 5748 5750 5748 5745 5742 5739 5736 5734 5731 5726 5722 5720 5717 5713 5710 5708 5706 5706 5703 5698 5692 5686 5682 5683 5683 5682 5681 5679 5670 5663 5658 5655 5654 5649 5645
5739 5742 5744 5744 5746 5747 5747 5744 5745 5745 5744 5742 5738 5736 5733 5731 5729 5725 5720 5717 5713 5712 5710 5707 5704 5703 5702 5697 5689 5682 5677 5674 5673 5675 5672 5666 5660 5656 5653 5649 5646 5642 5641
5731 5734 5736 5737 5738 5741 5741 5741 5741 5740 5738 5736 5734 5731 5728 5726 5724 5722 5720 5716 5714 5711 5709 5707 5703 5701 5698 5695 5690 5682 5674 5667 5664 5664 5662 5656 5652 5649 5648 5646 5643 5641 5641
5722 5726 5728 5729 5731 5734 5734 5736 5736 5735 5732 5730 5728 5727 5725 5723 5720 5717 5715 5714 5713 5711 5705 5704 5701 5696 5691 5688 5683 5679 5675 5670 5665 5660 5657 5656 5654 5651 5649 5647 5644 5641 5638
5714 5717 5720 5722 5724 5726 5727 5728 5730 5729 5727 5724 5722 5722 5721 5718 5715 5711 5707 5702 5701 5698 5694 5692 5691 5689 5683 5677 5672 5667 5663 5658 5654 5649 5650 5649 5647 5646 5644 5641 5638 5634 5631